Simultaneous Nadir Overpasses (SNOs) Predictions

Prediction of SNOs between GOES-17 and AQUA Satellite Orbit:

Table of predicted SNOs for the next 14.0 days since TLE Epoch: 8/7/2021
Index Date Time (GOES-17) GOES-17 Lat,Lon AQUA Lat,Lon Distance(km) Time Diff (sec)
1 08/07/2021 22:39:50 -0.03,-137.20 0.16,-136.45 86.33 80
2 08/09/2021 22:30:18 -0.03,-137.21 0.75,-133.49 422.91 80
3 08/10/2021 10:51:33 0.03,-137.21 0.36,-138.64 163.66 80
4 08/12/2021 10:39:22 0.03,-137.20 -0.30,-135.69 172.41 80
5 08/12/2021 22:58:06 -0.03,-137.21 -0.83,-140.88 417.90 80
6 08/14/2021 22:45:55 -0.03,-137.20 -0.17,-137.92 82.70 80
7 08/16/2021 22:36:23 -0.02,-137.18 0.44,-134.96 251.42 80
8 08/17/2021 10:54:59 0.01,-137.17 0.61,-140.13 335.95 80
9 08/19/2021 10:42:47 -0.01,-137.14 -0.00,-137.17 3.17 80
